Weather in Ust-Khayryuzovo

Russia / Kamchatka Krai     57°05′23″N   156°44′09″E
temp.,
°C
wind,
m/s
gust,
m/s
humid.,
%
clouds,
%
prec.,
mm/h
press.,
hPa
HPBL,
m
28 february, sun
sun2800:00−12nne348796 0.0 101433
03:00−12ene347899 0.0 101328
06:00−14ne347595 0.0 101123
09:00−13ne3478100 0.0 101135
12:00−9nne4677100 0.0 1009222
15:00−6ene91475100 0.0 1007541
18:00−12nne81188100 0.0 1004194
21:00−15nne71388100 0.0 1004239
1 march, mon
mon100:00−15nne71291100 0.0 1002236
03:00−16nne91591100 0.1 1000269
06:00−17nne81394100 0.1 1000258
09:00−17nne71391100 0.0 1000321
12:00−16nne81285100 0.0 1000495
15:00−16nne81187100 0.1 1000626
18:00−16nne71089100 0.3 1002711
21:00−17nne41090100 0.1 1004518
2 march, tue
tue200:00−18nne4685100 0.1 1006106
03:00−19ne2383100 0.0 100920
06:00−19e1179100 0.0 101120
09:00−19se2278100 0.0 101520
12:00−16sse4584100 0.0 1016261
15:00−13sse457798 0.0 1018489
18:00−13e338899 0.0 101843
21:00−15ese4494100 0.1 102153
3 march, wed
wed300:00−13ssw81488100 0.4 1023216
03:00−13s7109165 0.1 1023185
06:00−14sse579382 0.1 1022110
09:00−13e4589100 0.0 101792
12:00−11ne91286100 0.1 1009634
15:00−8e101691100 2.0 998637
18:00−5ene71385100 5.1 988445
21:00−3ese81389100 2.7 979374
4 march, thu
thu400:000ese71383100 6.3 969313
03:00−2ssw81992100 1.4 9671222
06:00−14w172392100 2.4 9791242
09:00−12wsw162190100 1.1 9871722
12:00−13wsw162182100 1.5 9912137
15:00−12wsw182481100 0.4 9942319
18:00−11wsw142085100 0.8 9961757
21:00−11wsw111693100 0.8 9951021